Theta_e
308 311 311 311 310 310 310 310 311 312 312 311 313 313 313 312 311 311 311 310 310 310 311 310 312 313 313 313 317 318 328 331 352 350 350 351 347 344 343 343 342 341 338 337
311 311 310 310 310 310 311 312 313 312 311 312 313 313 313 312 313 314 317 318 317 317 318 320 320 320 319 318 318 319 319 324 334 350 350 348 346 341 340 339 340 340 340 338
311 310 309 310 310 311 312 312 312 312 312 313 312 313 312 313 316 316 315 314 314 315 316 316 317 319 320 321 319 319 328 325 326 331 349 349 347 345 343 340 339 338 338 338
310 309 310 310 311 311 313 311 311 313 314 314 312 314 313 315 316 316 314 312 312 312 312 313 314 316 318 322 321 318 324 339 337 344 348 349 347 345 345 343 341 337 335 336
311 312 311 311 311 311 312 311 312 313 313 313 313 313 313 315 317 317 315 312 310 310 310 310 311 312 314 320 321 319 319 339 342 346 351 350 348 348 345 345 342 338 333 331
311 309 309 310 311 311 311 312 311 310 311 315 312 313 314 317 317 315 312 310 309 308 308 309 309 312 313 318 319 319 319 338 341 344 337 347 348 348 347 346 344 337 332 331
312 312 309 310 312 312 313 316 319 317 316 315 311 314 315 317 313 312 310 309 307 307 307 308 308 309 311 314 316 318 327 341 342 345 340 331 349 348 348 347 345 338 332 329
313 313 312 311 312 312 313 315 317 318 318 316 314 316 315 316 311 310 309 308 307 306 306 306 307 306 308 309 312 316 324 334 341 342 347 348 348 348 348 348 345 338 334 331
314 314 311 312 311 312 314 315 314 316 315 315 315 314 315 315 313 310 310 309 308 306 305 305 306 306 306 307 308 313 318 329 336 340 342 344 345 346 346 344 344 340 338 336
313 314 313 311 312 313 313 314 317 315 317 317 315 315 317 317 313 310 309 309 307 306 305 305 306 305 305 305 306 311 315 320 328 336 339 341 342 343 344 342 341 339 340 340
313 313 314 312 313 313 314 316 315 314 315 318 317 316 316 313 311 310 308 307 306 306 305 305 305 305 305 305 305 307 313 316 322 330 336 339 340 341 342 343 343 341 342 342
313 314 314 313 312 311 312 313 314 316 316 316 316 315 313 313 311 309 308 307 306 305 304 304 304 304 304 305 305 306 307 315 316 321 330 337 338 341 342 342 343 342 342 342
313 315 316 315 315 313 314 314 314 314 314 316 315 316 314 313 311 308 307 306 305 305 304 304 303 303 303 304 304 305 307 309 315 316 322 333 338 341 341 341 342 342 342 341
313 315 314 317 315 313 314 314 313 313 317 315 314 314 314 312 310 307 306 305 305 304 304 304 303 303 303 303 303 304 305 311 310 316 316 322 334 341 345 343 342 342 342 342
315 316 315 314 314 313 314 314 314 315 315 316 314 314 313 312 309 307 305 305 305 305 304 304 303 302 302 302 302 303 304 308 309 316 317 318 325 335 342 345 346 345 343 343
312 316 315 315 314 315 316 314 314 313 312 314 314 313 310 309 308 307 305 305 305 304 303 304 302 302 302 302 302 302 303 305 307 312 317 317 320 326 335 343 346 348 343 343
315 316 314 316 314 314 315 313 314 313 312 312 313 312 310 309 307 306 305 305 304 303 302 303 301 301 302 302 303 303 304 303 306 311 316 317 319 322 327 330 335 342 342 344
315 314 315 317 314 317 313 313 313 313 312 312 312 311 309 307 305 305 305 304 304 303 302 302 301 301 302 302 302 303 304 304 305 307 314 317 317 320 323 325 331 338 343 337
312 315 317 316 314 314 312 311 312 311 312 311 310 310 308 306 304 306 306 304 303 302 302 302 301 301 302 302 302 303 304 305 304 307 313 316 317 320 321 323 327 335 340 337
311 313 316 313 316 316 314 312 309 308 311 309 309 307 307 305 307 308 305 303 303 302 301 301 300 301 302 302 303 303 304 306 306 307 311 315 315 317 320 322 328 330 335 335
314 314 314 314 314 315 312 310 307 313 315 309 307 306 306 306 305 304 304 304 302 302 301 301 300 301 302 303 303 303 305 307 308 309 311 315 315 316 317 321 324 327 334 334
315 314 313 312 313 313 309 308 313 313 308 308 307 307 305 305 305 304 303 301 301 301 301 300 300 301 302 303 302 304 305 308 311 313 314 315 316 316 316 318 322 324 333 332
316 315 315 315 316 311 309 311 310 308 309 309 307 306 305 305 305 304 302 301 300 300 301 300 299 300 302 302 302 303 306 311 315 317 319 322 321 319 318 318 320 324 327 331
311 310 314 313 314 310 308 309 309 309 308 307 306 306 305 304 304 303 301 300 299 300 300 300 300 300 302 303 302 305 307 313 317 319 322 323 324 323 321 318 321 327 327 331
310 311 313 313 313 311 310 310 310 308 307 306 306 306 305 304 303 302 300 298 299 299 301 300 300 300 301 302 302 306 310 315 316 317 321 321 323 322 322 324 324 326 328 330
307 310 312 316 311 311 312 309 308 308 307 306 307 305 304 302 302 299 298 297 298 299 300 300 300 300 301 302 302 304 307 311 314 316 319 321 319 320 322 323 324 325 327 328
Wind_Speed
3 1 3 6 5 8 9 10 14 15 14 15 21 23 23 22 18 20 24 26 28 29 30 31 34 36 36 30 28 26 32 38 43 48 49 48 49 51 49 49 48 45 42 39
1 1 2 6 2 1 5 11 14 9 7 16 18 27 18 8 9 14 18 23 23 24 22 23 26 28 26 25 25 25 31 38 42 46 49 47 50 51 49 48 47 46 44 42
2 4 3 3 2 6 7 8 13 18 20 16 10 13 1 3 9 15 20 22 23 24 27 27 30 28 28 25 21 23 28 36 43 45 47 46 43 48 47 47 47 46 44 44
0 2 3 2 3 7 10 4 14 19 15 8 7 8 7 6 9 14 21 27 27 29 30 28 30 31 30 30 23 20 26 33 38 38 46 50 53 51 47 47 44 41 41 44
2 4 4 1 1 6 7 14 16 16 11 8 1 6 4 9 8 14 21 28 29 30 30 32 31 32 30 29 27 20 22 29 33 35 41 47 50 49 38 41 45 43 39 42
3 3 2 1 6 3 11 11 2 3 2 2 2 5 11 5 6 13 22 30 29 32 33 31 29 29 32 28 28 18 16 27 32 36 40 42 49 45 45 40 42 37 40 43
5 1 1 1 7 2 13 10 4 3 2 3 1 11 9 1 6 10 17 25 27 30 31 33 33 32 32 32 31 25 6 17 30 33 39 38 54 49 48 46 41 38 39 44
5 3 1 2 4 5 4 4 2 5 4 12 15 6 3 8 4 10 17 22 26 30 32 31 31 32 29 32 29 28 16 9 20 29 42 51 46 42 44 44 39 40 42 37
4 4 2 7 2 3 2 2 2 3 8 6 4 5 7 6 6 16 23 28 30 31 32 33 33 31 30 29 28 26 23 9 13 24 29 37 39 40 37 36 42 40 37 36
3 5 1 1 1 3 3 2 3 1 5 6 6 14 9 5 11 14 20 26 29 29 31 32 31 33 31 28 26 22 21 17 7 16 21 28 32 35 39 39 41 39 34 31
4 3 2 6 4 3 2 3 2 2 3 4 7 6 3 1 7 13 18 25 29 30 30 30 34 33 32 29 26 23 19 18 12 3 16 24 25 30 34 43 41 39 36 32
7 3 5 7 11 9 8 5 3 3 3 6 7 13 8 2 7 16 21 26 28 27 29 30 34 33 34 31 29 25 20 17 15 10 3 17 29 26 34 38 40 41 40 36
7 3 4 2 2 2 5 7 7 7 6 8 5 7 7 8 18 19 22 28 27 27 28 29 35 34 35 33 31 27 22 18 16 14 7 5 19 27 28 32 36 37 36 37
10 7 9 8 9 8 13 17 15 9 5 14 18 28 24 21 17 20 28 26 26 27 28 29 33 34 34 34 30 28 25 19 18 16 11 2 12 19 26 27 30 34 35 36
8 8 14 18 19 18 20 21 18 18 18 12 21 22 24 21 13 22 24 24 26 30 30 29 32 35 32 32 34 28 23 22 21 18 16 8 2 11 20 24 26 27 31 35
6 5 6 9 16 17 21 19 18 20 19 16 19 23 7 15 21 24 24 24 27 28 33 27 35 32 32 29 31 32 27 23 21 19 18 13 3 5 13 24 23 30 31 33
7 4 3 6 4 14 14 7 8 5 8 10 11 16 15 16 17 23 25 22 25 27 36 27 36 35 36 35 31 30 30 26 21 20 18 15 10 7 7 10 21 29 33 33
7 6 3 5 9 4 2 4 7 10 13 14 16 17 13 14 20 25 20 15 27 29 33 34 36 35 35 32 29 25 24 25 22 22 19 16 14 13 10 8 12 25 32 34
15 7 2 3 4 12 7 6 6 6 8 10 12 12 11 14 20 15 10 23 26 29 33 33 34 31 30 31 25 23 22 23 24 22 18 17 18 17 14 12 11 17 27 31
11 9 4 3 4 5 2 6 6 4 6 9 10 8 10 9 5 10 23 28 26 26 33 34 33 28 27 26 24 21 20 21 24 24 20 19 20 21 21 19 18 14 17 26
5 4 11 9 7 8 5 12 9 3 4 8 10 10 8 6 9 21 26 24 25 25 33 33 31 28 27 26 24 21 18 17 19 22 22 21 20 20 24 23 23 19 17 20
10 10 5 5 7 10 16 10 6 1 3 7 8 9 11 13 16 18 20 23 25 27 33 33 31 28 28 27 25 23 15 10 11 16 20 22 22 21 20 21 23 23 20 20
6 6 6 9 6 2 23 8 14 8 9 9 8 7 9 13 16 17 20 22 21 25 31 31 31 29 28 28 28 23 17 8 5 11 11 12 16 19 22 22 23 21 23 22
7 9 4 4 7 13 17 21 18 14 13 9 9 8 8 12 16 17 18 19 18 22 29 29 29 29 30 29 32 25 18 10 5 1 5 8 10 15 19 22 22 20 21 26
3 8 9 8 11 11 17 16 13 10 11 10 9 9 9 10 14 15 17 17 15 20 27 27 28 29 28 30 30 27 19 12 8 5 2 2 7 12 14 14 15 16 20 24
10 10 7 6 8 6 4 2 5 9 10 9 8 7 7 9 12 14 15 13 13 17 24 25 27 27 28 28 30 28 21 14 10 8 3 3 7 6 7 10 11 13 17 20
Wind_Direction
35 323 98 339 297 281 290 286 303 304 307 321 303 302 307 313 308 318 330 328 315 306 306 304 306 302 298 283 272 270 236 235 230 225 219 213 217 221 223 225 228 228 226 225
324 171 115 333 309 358 313 309 314 300 303 314 307 298 312 319 5 16 6 359 353 342 332 327 322 318 310 293 280 272 237 232 230 233 224 218 221 225 227 228 230 231 229 226
273 104 338 327 139 347 321 301 314 300 315 293 300 292 50 51 21 21 9 355 351 345 337 334 333 330 332 322 296 269 237 230 229 229 226 216 218 222 222 227 230 231 231 226
232 101 353 338 164 349 315 279 299 303 322 312 14 292 308 353 352 16 6 359 351 345 339 332 335 335 340 335 318 280 235 232 232 221 218 219 219 218 225 229 230 230 228 222
63 329 353 290 340 327 298 310 290 299 287 289 50 253 314 347 353 2 356 353 352 346 336 332 333 334 338 343 334 303 241 226 230 217 222 223 221 222 222 222 225 222 225 222
313 317 215 302 303 303 320 289 307 189 216 275 56 329 295 340 356 350 349 352 353 344 334 330 333 335 339 346 348 330 238 224 223 218 226 229 228 219 222 223 228 226 226 225
326 112 155 212 317 345 351 352 351 329 322 284 150 306 277 329 46 7 348 346 346 342 338 332 336 338 339 343 356 356 313 228 224 220 224 239 232 220 223 228 225 225 227 228
353 161 7 21 332 319 353 352 37 304 299 299 298 241 322 150 73 9 2 351 345 344 340 333 333 334 333 337 348 0 360 224 220 222 218 219 224 225 223 227 224 224 226 224
330 260 274 328 323 273 106 313 350 248 265 278 239 261 191 188 339 358 354 349 350 342 338 333 331 332 334 333 338 355 1 4 207 209 231 229 235 231 227 226 228 226 226 226
181 291 263 294 232 101 282 72 258 159 296 287 262 286 262 281 342 339 347 342 341 338 336 333 331 332 332 333 334 344 357 6 5 210 208 228 232 237 234 233 233 233 231 230
171 213 241 308 196 264 209 203 169 246 246 282 301 295 132 335 335 333 335 335 336 335 334 332 330 329 329 328 331 334 344 356 359 25 207 210 215 230 232 238 236 233 235 234
196 192 276 283 307 269 242 241 182 245 250 242 283 285 127 89 344 339 334 327 330 328 329 327 328 327 329 325 327 328 328 340 350 356 326 213 217 214 226 233 237 236 235 234
169 194 299 263 153 147 214 215 228 247 252 234 267 274 173 264 344 337 330 327 326 324 329 331 331 327 326 324 322 321 325 319 332 342 349 231 212 212 231 233 234 236 235 237
173 205 218 248 285 293 277 273 266 235 238 275 256 281 297 323 330 327 334 329 324 323 322 322 330 327 324 321 317 317 306 312 315 317 328 318 196 201 207 227 231 233 232 233
198 239 236 247 258 260 260 274 270 252 252 251 283 288 300 317 319 322 323 328 326 330 325 320 329 326 325 323 319 314 309 297 302 299 308 315 222 208 210 209 222 225 225 227
188 253 245 266 264 265 271 270 265 262 262 259 263 275 302 309 312 318 318 324 324 325 327 324 328 324 321 322 318 315 304 293 287 283 286 293 261 191 202 214 214 222 220 217
186 222 241 272 336 301 280 259 213 204 230 245 264 284 309 307 314 315 315 315 320 320 324 321 326 324 324 323 320 313 309 296 280 267 267 278 267 220 189 191 213 220 224 220
192 193 216 289 316 255 88 205 214 234 256 257 262 281 287 294 304 306 308 315 322 323 326 322 326 325 323 323 315 309 300 291 276 259 250 254 254 241 211 210 203 214 218 221
214 184 219 258 252 287 282 217 215 205 280 263 249 259 275 296 308 306 331 331 324 325 329 327 328 325 325 330 319 308 296 288 272 253 235 237 246 236 229 220 215 219 217 218
189 218 204 164 263 260 214 170 130 99 274 200 218 256 282 302 283 304 327 330 327 327 337 336 335 336 340 338 331 312 296 283 273 247 227 223 233 232 228 222 233 214 216 220
162 187 218 232 244 270 239 146 136 246 343 193 222 265 269 269 270 301 318 323 329 329 342 341 338 344 347 346 337 321 303 277 268 250 230 222 232 233 229 227 233 225 220 212
176 181 195 196 234 257 143 134 200 277 239 246 252 260 276 284 296 312 316 324 332 334 345 345 345 350 355 356 349 336 325 304 256 244 226 219 225 235 236 236 234 233 226 218
206 197 183 204 211 204 189 212 218 261 275 271 256 259 282 294 305 314 320 327 334 338 348 349 347 353 0 3 357 348 352 353 236 219 223 232 233 238 243 242 240 235 227 227
224 197 231 188 228 228 227 239 258 259 263 259 259 265 287 299 305 312 321 327 334 341 351 356 357 359 2 7 6 3 11 28 42 129 224 234 246 256 255 250 242 240 230 229
195 167 215 245 266 260 256 251 263 256 251 247 257 265 281 296 306 313 323 327 332 341 352 357 4 3 9 13 11 11 15 30 26 6 325 298 274 264 260 255 244 234 229 232
190 212 206 224 198 244 245 273 257 236 238 243 247 268 290 305 309 317 323 328 332 341 353 357 9 12 15 20 19 19 20 31 30 16 10 220 234 232 238 237 239 235 231 232